| time (UTC) | temp F | wind direction | speed MPH | gust MPH | rain 1hr in | rain 24hr in | rain mn in | humidity % | barometer mb |
| 20260506201508 | 59 | 290 | 0.0 | 6.0 | 0.00 | 0.01 | 0.01 | 93 | 1014.2 |
| 20260506200005 | 59 | 246 | 1.0 | 7.0 | 0.00 | 0.01 | 0.01 | 93 | 1014.2 |
| 20260506194505 | 59 | 270 | 0.0 | 4.0 | 0.00 | 0.01 | 0.01 | 93 | 1014.4 |
| 20260506193002 | 59 | 310 | 1.0 | 3.0 | 0.00 | 0.01 | 0.01 | 93 | 1014.7 |
| 20260506191600 | 59 | 250 | 1.0 | 5.0 | 0.00 | 0.01 | 0.01 | 92 | 1014.9 |
| 20260506184558 | 59 | 180 | 0.0 | 3.0 | 0.00 | 0.01 | 0.01 | 92 | 1015.0 |
| 20260506183057 | 59 | 117 | 1.0 | 3.0 | 0.00 | 0.01 | 0.01 | 91 | 1015.0 |
| 20260506181558 | 59 | 215 | 1.0 | 7.0 | 0.00 | 0.01 | 0.01 | 91 | 1015.2 |
| 20260506180054 | 59 | 125 | 1.0 | 8.0 | 0.00 | 0.01 | 0.01 | 90 | 1015.1 |
| 20260506174556 | 60 | 275 | 2.0 | 7.0 | 0.00 | 0.01 | 0.01 | 90 | 1015.4 |
| 20260506173124 | 60 | 137 | 1.0 | 8.0 | 0.00 | 0.01 | 0.01 | 91 | 1015.3 |
| 20260506171559 | 60 | 121 | 1.0 | 7.0 | 0.00 | 0.01 | 0.01 | 91 | 1015.3 |
| 20260506170051 | 59 | 181 | 1.0 | 8.0 | 0.00 | 0.01 | 0.01 | 90 | 1015.4 |
| 20260506164556 | 60 | 207 | 2.0 | 11.0 | 0.00 | 0.01 | 0.01 | 89 | 1015.2 |
| 20260506163053 | 60 | 263 | 2.0 | 8.0 | 0.00 | 0.01 | 0.01 | 89 | 1015.8 |
| 20260506161544 | 60 | 152 | 1.0 | 9.0 | 0.00 | 0.01 | 0.01 | 88 | 1016.4 |
| 20260506160040 | 61 | 173 | 1.0 | 8.0 | 0.00 | 0.01 | 0.01 | 87 | 1016.5 |
| 20260506154545 | 62 | 159 | 2.0 | 9.0 | 0.00 | 0.01 | 0.01 | 85 | 1016.8 |
| 20260506153046 | 62 | 171 | 0.0 | 3.0 | 0.00 | 0.01 | 0.01 | 85 | 1016.5 |
| 20260506151537 | 63 | 139 | 1.0 | 4.0 | 0.00 | 0.01 | 0.01 | 81 | 1016.6 |
| 20260506150037 | 63 | 294 | 0.0 | 8.0 | 0.00 | 0.01 | 0.01 | 78 | 1016.8 |
| 20260506144540 | 63 | 128 | 1.0 | 10.0 | 0.00 | 0.01 | 0.01 | 77 | 1016.7 |
| 20260506143037 | 63 | 103 | 2.0 | 9.0 | 0.00 | 0.01 | 0.01 | 76 | 1016.9 |
| 20260506141534 | 63 | 211 | 1.0 | 4.0 | 0.00 | 0.01 | 0.01 | 77 | 1016.6 |
| 20260506140034 | 63 | 229 | 1.0 | 5.0 | 0.00 | 0.01 | 0.01 | 77 | 1016.6 |
| 20260506134533 | 63 | 259 | 1.0 | 8.0 | 0.00 | 0.01 | 0.01 | 77 | 1016.7 |
| 20260506133034 | 63 | 232 | 3.0 | 10.0 | 0.00 | 0.01 | 0.01 | 76 | 1016.8 |
| 20260506131544 | 63 | 273 | 3.0 | 7.0 | 0.00 | 0.01 | 0.01 | 77 | 1016.9 |
| 20260506130042 | 63 | 252 | 2.0 | 9.0 | 0.00 | 0.01 | 0.01 | 77 | 1017.0 |
| 20260506124531 | 63 | 317 | 3.0 | 7.0 | 0.00 | 0.01 | 0.01 | 78 | 1016.7 |
| 20260506123030 | 62 | 190 | 2.0 | 6.0 | 0.00 | 0.01 | 0.01 | 79 | 1016.5 |
| 20260506121528 | 62 | 229 | 1.0 | 6.0 | 0.00 | 0.01 | 0.01 | 79 | 1016.7 |
| 20260506120029 | 62 | 301 | 1.0 | 9.0 | 0.00 | 0.01 | 0.01 | 79 | 1016.9 |
| 20260506114533 | 62 | 150 | 0.0 | 10.0 | 0.00 | 0.01 | 0.01 | 79 | 1017.0 |
| 20260506113026 | 62 | 163 | 1.0 | 7.0 | 0.00 | 0.01 | 0.01 | 79 | 1017.0 |
| 20260506111524 | 62 | 129 | 2.0 | 5.0 | 0.00 | 0.01 | 0.01 | 80 | 1017.0 |
| 20260506110024 | 61 | 296 | 1.0 | 8.0 | 0.00 | 0.01 | 0.01 | 80 | 1016.9 |
| 20260506104555 | 61 | 158 | 1.0 | 5.0 | 0.00 | 0.01 | 0.01 | 81 | 1016.8 |
| 20260506103055 | 61 | 189 | 1.0 | 8.0 | 0.00 | 0.01 | 0.01 | 81 | 1016.8 |
| 20260506101553 | 61 | 298 | 1.0 | 7.0 | 0.00 | 0.01 | 0.01 | 81 | 1016.7 |
| 20260506100100 | 61 | 248 | 1.0 | 4.0 | 0.00 | 0.01 | 0.01 | 81 | 1016.7 |
| 20260506094541 | 61 | 165 | 1.0 | 6.0 | 0.00 | 0.01 | 0.01 | 81 | 1016.5 |
| 20260506093045 | 61 | 109 | 2.0 | 8.0 | 0.00 | 0.01 | 0.01 | 81 | 1016.5 |
| 20260506091540 | 61 | 186 | 3.0 | 9.0 | 0.00 | 0.01 | 0.01 | 81 | 1016.6 |
| 20260506090037 | 61 | 214 | 2.0 | 10.0 | 0.00 | 0.01 | 0.01 | 81 | 1016.8 |
| 20260506084549 | 61 | 194 | 2.0 | 8.0 | 0.00 | 0.01 | 0.01 | 80 | 1016.8 |
| 20260506083035 | 61 | 246 | 2.0 | 7.0 | 0.00 | 0.01 | 0.01 | 79 | 1016.9 |
| 20260506081540 | 62 | 117 | 2.0 | 7.0 | 0.00 | 0.01 | 0.01 | 79 | 1016.9 |
| 20260506073039 | 62 | 134 | 1.0 | 5.0 | 0.00 | 0.01 | 0.01 | 75 | 1017.0 |
| 20260506071526 | 63 | 216 | 1.0 | 7.0 | 0.00 | 0.01 | 0.01 | 74 | 1017.0 |
| 20260506061519 | 64 | 182 | 1.0 | 7.0 | 0.01 | 0.01 | 0.01 | 70 | 1017.3 |
| 20260506044524 | 65 | 189 | 2.0 | 6.0 | 0.00 | 0.00 | 0.00 | 66 | 1018.1 |
| 20260506043009 | 65 | 158 | 1.0 | 8.0 | 0.00 | 0.00 | 0.00 | 66 | 1018.1 |
| 20260506041506 | 65 | 279 | 2.0 | 9.0 | 0.00 | 0.00 | 0.00 | 65 | 1018.0 |
| 20260506040005 | 65 | 222 | 2.0 | 8.0 | 0.00 | 0.00 | 0.00 | 65 | 1018.0 |
| 20260506034503 | 66 | 248 | 2.0 | 11.0 | 0.00 | 0.00 | 0.00 | 64 | 1017.9 |
| 20260506033007 | 66 | 219 | 2.0 | 7.0 | 0.00 | 0.00 | 0.00 | 63 | 1018.1 |
| 20260506031502 | 66 | 264 | 3.0 | 9.0 | 0.00 | 0.00 | 0.00 | 62 | 1017.9 |
| 20260506030100 | 67 | 196 | 2.0 | 8.0 | 0.00 | 0.00 | 0.00 | 60 | 1018.0 |
| 20260506024559 | 68 | 9 | 2.0 | 7.0 | 0.00 | 0.00 | 0.00 | 59 | 1017.9 |
| 20260506023112 | 68 | 340 | 2.0 | 11.0 | 0.00 | 0.00 | 0.00 | 56 | 1017.9 |
| 20260506021559 | 69 | 192 | 2.0 | 8.0 | 0.00 | 0.00 | 0.00 | 52 | 1017.8 |
| 20260506020057 | 70 | 148 | 1.0 | 7.0 | 0.00 | 0.00 | 0.00 | 50 | 1017.7 |
| 20260506014558 | 70 | 126 | 2.0 | 8.0 | 0.00 | 0.00 | 0.00 | 49 | 1017.7 |
| 20260506013058 | 71 | 207 | 2.0 | 10.0 | 0.00 | 0.00 | 0.00 | 48 | 1017.5 |
| 20260506011617 | 71 | 115 | 1.0 | 8.0 | 0.00 | 0.00 | 0.00 | 48 | 1017.4 |
| 20260506004624 | 72 | 304 | 1.0 | 7.0 | 0.00 | 0.00 | 0.00 | 45 | 1017.1 |
| 20260506003109 | 73 | 191 | 2.0 | 10.0 | 0.00 | 0.00 | 0.00 | 43 | 1016.9 |
| 20260506001557 | 73 | 144 | 2.0 | 6.0 | 0.00 | 0.00 | 0.00 | 41 | 1016.8 |
| 20260506000053 | 73 | 105 | 1.0 | 7.0 | 0.00 | 0.00 | 0.00 | 40 | 1016.7 |
| 20260505234620 | 74 | 267 | 1.0 | 9.0 | 0.00 | 0.00 | 0.00 | 39 | 1016.6 |
| 20260505233053 | 74 | 177 | 2.0 | 9.0 | 0.00 | 0.00 | 0.00 | 38 | 1016.6 |
| 20260505231551 | 75 | 188 | 0.0 | 8.0 | 0.00 | 0.00 | 0.00 | 38 | 1016.4 |
| 20260505230050 | 75 | 348 | 2.0 | 10.0 | 0.00 | 0.00 | 0.00 | 37 | 1016.4 |
| 20260505224550 | 75 | 198 | 2.0 | 9.0 | 0.00 | 0.00 | 0.00 | 35 | 1016.1 |
| 20260505223050 | 76 | 234 | 4.0 | 16.0 | 0.00 | 0.00 | 0.00 | 34 | 1016.0 |
| 20260505221549 | 78 | 290 | 6.0 | 15.0 | 0.00 | 0.00 | 0.00 | 32 | 1016.0 |
| 20260505220100 | 78 | 105 | 2.0 | 12.0 | 0.00 | 0.00 | 0.00 | 33 | 1016.0 |
| 20260505214551 | 78 | 244 | 3.0 | 12.0 | 0.00 | 0.00 | 0.00 | 34 | 1015.9 |
| 20260505213050 | 78 | 289 | 4.0 | 10.0 | 0.00 | 0.00 | 0.00 | 33 | 1015.9 |
| 20260505211552 | 78 | 250 | 2.0 | 11.0 | 0.00 | 0.00 | 0.00 | 33 | 1015.7 |
| 20260505210046 | 78 | 230 | 1.0 | 12.0 | 0.00 | 0.00 | 0.00 | 32 | 1015.4 |
| 20260505204547 | 80 | 246 | 4.0 | 10.0 | 0.00 | 0.00 | 0.00 | 32 | 1015.4 |
| 20260505203044 | 80 | 159 | 2.0 | 18.0 | 0.00 | 0.00 | 0.00 | 33 | 1015.7 |